Volver al catálogo

MORELOS 3

ActivoComunicacionesGEO
NORAD 40946·PAYLOAD·🇲🇽 Mexico

Lanzado Oct 2, 2015 desde Cape Canaveral Space Force Station

Loading…

TLE

ActualizadoSource: Space-Track

Época: Sep 14, 2026, 13:15 UTC

1 40946U 15056A   26257.55269747 -.00000050  00000-0  00000-0 0  9993
2 40946   3.2681  17.2385 0003208 185.5863 236.5862  1.00272619 40183

Sigue MORELOS 3 en tiempo real con AllMySat

Download on the App Store